Вернуться в каталог

STARLINK-32638

АктивенСвязьVLEO
NORAD 62424·PAYLOAD·🇺🇸 United States

Запущен Dec 23, 2024 с Cape Canaveral Space Force Station

Loading…

Ближайшие Пролёты (ближайшие 24 часа)

TLE

СвежийSource: CelesTrak SupGP

Эпоха: Sep 14, 2026, 22:24 UTC

1 62424C 24249R   26257.93381944 -.00022611  00000+0 -81973-3 0  2573
2 62424  43.0037 336.9514 0001833 283.2233   8.7165 15.27559014    13

Отслеживайте STARLINK-32638 в реальном времени с AllMySat

Download on the App Store